[[{"header":{"parameterUnit":"m.s-1","parameterCategory":1,"la1":30.2991,"la2":30.254,"lo1":-89.0895,"lo2":-89.0444,"dy":0.0017,"dx":0.0017,"nx":28,"ny":28,"refTime":"2023-04-20T21:00:00:Z","depth":0,"parameterNumber":2,"parameterNumberName":"U-component_of_WINDS"},"data":[0,0,0,0,0,0,0,0,0,0,0,0,0,0,0,0,0,0,0,0,0,0,0,0,0,0,0,0,0,0,0,0,0,0,0,0,0,0,0,0,0,0,0,0,0,0,0,0,0,0,0,0,0,0,0,0,0,0,-1.4394,-1.4395,0,-1.447,-1.4471,-1.4472,-1.4487,-1.4487,-1.4486,-1.4485,-1.4569,-1.4572,-1.4574,0,0,0,0,0,0,0,0,0,0,0,0,0,-1.4266,-1.4268,-1.4394,-1.4395,-1.4396,-1.447,-1.4471,-1.4472,-1.4487,-1.4487,-1.4486,-1.4485,-1.4568,-1.4571,-1.4575,0,0,0,0,0,0,0,0,0,0,0,0,0,-1.433,-1.4269,-1.4394,-1.4412,-1.4414,-1.447,-1.4471,-1.4473,-1.4487,-1.4486,-1.4486,-1.4485,-1.4567,-1.4571,-1.4575,-1.4619,0,0,-1.4588,-1.459,0,0,0,0,0,0,0,0,-1.4326,-1.4335,-1.4408,-1.4411,-1.4414,-1.4468,-1.4457,-1.4522,-1.4488,-1.446,-1.4485,-1.4484,-1.4536,-1.4543,-1.456,-1.4623,-1.4627,-1.4588,-1.4591,-1.4593,-1.4594,0,0,0,0,0,0,0,-1.4322,-1.4332,-1.4424,-1.4409,-1.4413,-1.4418,-1.4426,-1.4469,-1.4503,-1.4462,-1.4463,-1.4472,-1.4538,-1.4556,-1.4562,-1.4628,-1.4588,-1.4592,-1.4594,-1.4596,-1.4734,-1.4735,0,0,0,0,0,0,-1.4313,-1.4328,-1.4422,-1.4426,-1.4367,-1.4421,-1.443,-1.4452,-1.4502,-1.4509,-1.4473,-1.4472,-1.4549,-1.4557,-1.4565,-1.462,-1.4593,-1.4597,-1.4599,-1.4733,-1.4734,-1.4735,0,0,0,0,0,0,-1.4311,-1.4322,-1.4419,-1.4377,-1.439,-1.4424,-1.4448,-1.4454,-1.4471,-1.451,-1.4517,-1.4484,-1.4548,-1.4559,-1.4606,-1.4623,-1.4598,-1.4602,-1.4731,-1.4733,-1.4735,-1.4731,0,0,0,0,0,0,-1.4307,-1.4321,-1.4336,-1.4378,-1.4392,-1.4456,-1.4449,-1.4456,-1.4478,-1.4478,-1.4523,-1.4529,-1.4549,-1.4599,-1.461,-1.4629,-1.4605,-1.473,-1.4732,-1.4734,-1.473,-1.4733,-1.4735,0,0,0,0,0,-1.4302,-1.4333,-1.4337,-1.4348,-1.4412,-1.4457,-1.4466,-1.4486,-1.4479,-1.4496,-1.4521,-1.4528,-1.462,-1.4604,-1.4616,-1.4636,-1.4729,-1.4732,-1.4734,-1.4729,-1.4732,-1.4735,0,0,0,0,0,0,-1.4294,-1.4339,-1.4343,-1.4388,-1.4419,-1.446,-1.4481,-1.4489,-1.4523,-1.4522,-1.4548,-1.4558,-1.4603,-1.4625,-1.4606,-1.4683,-1.4674,-1.4679,-1.4666,-1.467,-1.4672,-1.4666,-1.4609,0,0,0,0,0,-1.4297,-1.4328,-1.4367,-1.4402,-1.4417,-1.4447,-1.4467,-1.448,-1.4513,-1.4527,-1.4555,-1.4589,-1.4626,-1.4649,-1.4685,-1.4734,-1.4745,-1.4754,-1.4757,-1.4759,-1.4762,-1.4791,-1.4796,-1.4744,-1.4744,-1.4744,0,0,-1.4305,-1.4333,-1.4351,-1.4401,-1.4427,-1.446,-1.4458,-1.4493,-1.4518,-1.4533,-1.4578,-1.4601,-1.464,-1.4688,-1.4711,-1.4708,-1.4779,-1.4762,-1.4763,-1.4766,-1.4794,-1.4799,-1.4803,-1.4746,-1.4745,-1.4745,0,0,-1.4334,-1.4359,-1.4391,-1.4416,-1.4454,-1.4474,-1.4482,-1.4522,-1.4537,-1.4583,-1.4595,-1.4627,-1.4689,-1.4717,-1.4739,-1.4782,-1.4789,-1.4793,-1.4806,-1.4833,-1.4837,-1.4841,-1.4856,-1.4861,-1.4797,-1.4797,-1.4797,0,-1.4339,-1.4387,-1.4408,-1.4442,-1.4464,-1.4478,-1.4513,-1.4537,-1.4585,-1.4601,-1.4597,-1.4676,-1.4704,-1.4759,-1.4769,-1.4787,-1.4798,-1.4787,-1.4835,-1.4839,-1.4843,-1.4857,-1.4863,-1.4797,-1.4797,-1.4797,-1.4797,0,-1.4391,-1.4425,-1.4448,-1.4492,-1.4517,-1.4552,-1.4579,-1.4602,-1.4614,-1.4635,-1.4682,-1.4716,-1.4759,-1.4774,-1.4786,-1.4832,-1.4828,-1.4829,-1.4821,-1.4847,-1.4862,-1.4868,-1.4797,-1.4797,-1.4797,-1.4797,0,0,-1.4416,-1.4472,-1.448,-1.4501,-1.4544,-1.4572,-1.4608,-1.4649,-1.4669,-1.4703,-1.4734,-1.4788,-1.4789,-1.4814,-1.483,-1.4854,-1.4886,-1.4852,-1.4854,-1.4857,-1.4939,-1.4937,-1.4944,-1.4892,-1.4893,-1.4894,-1.4936,0,-1.4451,-1.4513,-1.4533,-1.4586,-1.4618,-1.4633,-1.4665,-1.4696,-1.4717,-1.4749,-1.4774,-1.4811,-1.481,-1.4825,-1.485,-1.4877,-1.4903,-1.4874,-1.4923,-1.4924,-1.4911,-1.4951,-1.4949,-1.4987,-1.4942,-1.4943,-1.4943,0,-1.4499,-1.4532,-1.4587,-1.4627,-1.4642,-1.4669,-1.4709,-1.4739,-1.4776,-1.479,-1.4819,-1.4833,-1.4874,-1.4864,-1.4921,-1.4901,-1.4923,-1.494,-1.4942,-1.4946,-1.4934,-1.4956,-1.4999,-1.5004,-1.4952,-1.4952,-1.4951,0,-1.4511,-1.457,-1.461,-1.4628,-1.4676,-1.4695,-1.4716,-1.4752,-1.4776,-1.4812,-1.4828,-1.4868,-1.4891,-1.4923,-1.4949,-1.4939,-1.5004,-1.4997,-1.5018,-1.5017,-1.503,-1.5028,-1.5076,-1.5045,-1.5045,-1.5045,-1.5045,0,-1.4547,-1.458,-1.4616,-1.4641,-1.468,-1.4704,-1.4742,-1.4765,-1.4797,-1.4828,-1.4845,-1.4874,-1.4907,-1.4941,-1.4962,-1.5007,-1.5017,-1.503,-1.5035,-1.5028,-1.5026,-1.5042,-1.504,-1.5046,-1.5046,-1.5046,-1.5045,0,-1.4566,-1.4592,-1.4637,-1.4679,-1.469,-1.4717,-1.4754,-1.478,-1.4802,-1.4842,-1.4852,-1.4888,-1.493,-1.4959,-1.5013,-1.5027,-1.5075,-1.508,-1.5062,-1.5064,-1.5083,-1.5081,-1.5142,-1.5151,-1.5115,-1.5115,-1.5115,0,-1.4587,-1.4613,-1.4657,-1.4678,-1.4699,-1.4733,-1.4757,-1.4783,-1.4808,-1.4853,-1.4874,-1.4916,-1.4951,-1.5017,-1.505,-1.5091,-1.5097,-1.5116,-1.5104,-1.5096,-1.5098,-1.5095,-1.5098,-1.5117,-1.5118,-1.5118,-1.5118,0,-1.4621,-1.4633,-1.4665,-1.4703,-1.4731,-1.4762,-1.4794,-1.4811,-1.4843,-1.4871,-1.4912,-1.4939,-1.4994,-1.5037,-1.5082,-1.5107,-1.5118,-1.5122,-1.5129,-1.5121,-1.5109,-1.5116,-1.5066,-1.512,-1.512,-1.512,-1.512,-1.5119,-1.4642,-1.4665,-1.47,-1.4737,-1.4763,-1.4793,-1.4819,-1.4845,-1.4879,-1.4924,-1.4939,-1.4982,-1.5021,-1.5082,-1.5108,-1.5144,-1.5143,-1.5153,-1.5155,-1.5157,-1.5157,-1.5104,-1.5152,-1.5152,-1.5152,-1.5152,-1.5152,0,-1.4676,-1.4699,-1.4733,-1.4776,-1.4805,-1.4812,-1.4849,-1.4873,-1.491,-1.4944,-1.4978,-1.5027,-1.5069,-1.5105,-1.5149,-1.5171,-1.5177,-1.5181,-1.518,-1.5185,-1.5155,-1.5145,-1.5175,-1.5175,-1.5175,-1.5175,-1.5175,-1.5175,-1.4697,-1.4738,-1.4754,-1.4808,-1.4832,-1.4873,-1.4893,-1.4922,-1.4949,-1.5002,-1.5036,-1.5058,-1.5094,-1.5141,-1.518,-1.519,-1.5205,-1.5208,-1.5219,-1.519,-1.5187,-1.5185,-1.5174,-1.5211,-1.5211,-1.5245,-1.5246,-1.5246]},{"header":{"parameterUnit":"m.s-1","parameterCategory":1,"la1":30.2991,"la2":30.254,"lo1":-89.0895,"lo2":-89.0444,"dy":0.0017,"dx":0.0017,"nx":28,"ny":28,"refTime":"2023-04-20T21:00:00:Z","depth":0,"parameterNumber":3,"parameterNumberName":"V-component_of_WINDS"},"data":[0,0,0,0,0,0,0,0,0,0,0,0,0,0,0,0,0,0,0,0,0,0,0,0,0,0,0,0,0,0,0,0,0,0,0,0,0,0,0,0,0,0,0,0,0,0,0,0,0,0,0,0,0,0,0,0,0,0,2.0665,2.0665,0,2.0648,2.0648,2.0648,2.0679,2.068,2.0681,2.0682,2.0658,2.0656,2.0655,0,0,0,0,0,0,0,0,0,0,0,0,0,2.0718,2.0717,2.0665,2.0664,2.0664,2.0648,2.0648,2.0648,2.0678,2.068,2.0681,2.0682,2.0659,2.0657,2.0655,0,0,0,0,0,0,0,0,0,0,0,0,0,2.0697,2.0716,2.0665,2.0678,2.0679,2.0648,2.0648,2.0648,2.0678,2.068,2.0681,2.0683,2.0659,2.0657,2.0654,2.0608,0,0,2.0647,2.0646,0,0,0,0,0,0,0,0,2.0698,2.0695,2.0676,2.0677,2.0678,2.0667,2.0658,2.0634,2.0678,2.0678,2.0682,2.0683,2.0659,2.0657,2.065,2.0607,2.0606,2.0647,2.0645,2.0644,2.0644,0,0,0,0,0,0,0,2.07,2.0696,2.0658,2.0676,2.0677,2.0683,2.0682,2.0654,2.066,2.0678,2.068,2.0678,2.066,2.0652,2.065,2.0606,2.0647,2.0645,2.0643,2.0642,2.0525,2.0523,0,0,0,0,0,0,2.07,2.0697,2.0658,2.0657,2.0692,2.0681,2.0679,2.0669,2.066,2.0661,2.0677,2.068,2.0656,2.0653,2.0649,2.0596,2.0644,2.0642,2.0641,2.0526,2.0524,2.0523,0,0,0,0,0,0,2.0701,2.0697,2.0659,2.0678,2.0674,2.0678,2.0666,2.0668,2.066,2.066,2.066,2.0669,2.0657,2.0653,2.0619,2.0595,2.0641,2.0639,2.0528,2.0526,2.0524,2.0487,0,0,0,0,0,0,2.0703,2.0697,2.068,2.0677,2.0673,2.0631,2.0665,2.0666,2.0657,2.066,2.0652,2.0652,2.0658,2.0622,2.0616,2.0593,2.0637,2.0531,2.0527,2.0524,2.049,2.0484,2.0478,0,0,0,0,0,2.0705,2.0669,2.0679,2.0675,2.0652,2.0629,2.0626,2.0636,2.0655,2.0638,2.0637,2.0652,2.0599,2.0619,2.0612,2.0587,2.0532,2.0528,2.0525,2.0493,2.0485,2.0478,0,0,0,0,0,0,2.0666,2.0669,2.068,2.0643,2.0636,2.0635,2.0613,2.0626,2.0612,2.0616,2.0626,2.0624,2.0588,2.0584,2.0606,2.0543,2.0568,2.0563,2.0547,2.0539,2.0533,2.0534,2.0635,0,0,0,0,0,2.0654,2.0637,2.0639,2.0606,2.0602,2.0608,2.0598,2.0607,2.0599,2.0595,2.0593,2.0583,2.0564,2.0551,2.0533,2.049,2.0489,2.047,2.0463,2.0458,2.0454,2.0431,2.0423,2.051,2.051,2.051,0,0,2.0628,2.0627,2.0615,2.0598,2.0594,2.0575,2.0605,2.0583,2.0569,2.0591,2.056,2.0558,2.0547,2.0509,2.0492,2.0505,2.0429,2.0453,2.0449,2.0447,2.0427,2.0418,2.0411,2.0508,2.0508,2.0509,0,0,2.057,2.0568,2.0541,2.0536,2.053,2.0535,2.0528,2.0525,2.0525,2.0495,2.0512,2.0493,2.046,2.0453,2.0445,2.0386,2.0399,2.0379,2.0346,2.0325,2.0318,2.0312,2.0291,2.0284,2.0375,2.0375,2.0375,0,2.0537,2.0511,2.0524,2.0502,2.0494,2.0517,2.0489,2.0483,2.047,2.0463,2.0478,2.0439,2.0433,2.0394,2.038,2.0372,2.0365,2.0381,2.0318,2.0312,2.0307,2.0287,2.028,2.0372,2.0373,2.0373,2.0373,0,2.0472,2.0453,2.0431,2.0422,2.0411,2.0386,2.0395,2.0382,2.0391,2.0394,2.0363,2.0357,2.034,2.0331,2.0338,2.0293,2.0301,2.0317,2.0343,2.0296,2.0278,2.0271,2.0369,2.037,2.0371,2.0371,0,0,2.0389,2.0389,2.0381,2.0377,2.0372,2.0357,2.0333,2.0318,2.0308,2.0298,2.0277,2.025,2.0265,2.0256,2.0263,2.0244,2.0199,2.0262,2.0262,2.0251,2.0149,2.0137,2.0129,2.0207,2.0206,2.0205,2.015,0,2.0333,2.0293,2.0305,2.0265,2.0248,2.0269,2.0248,2.0242,2.0244,2.0228,2.0229,2.021,2.0231,2.0226,2.0208,2.0208,2.0178,2.0212,2.0187,2.0186,2.019,2.0119,2.0107,2.0055,2.0143,2.0142,2.0141,0,2.0262,2.0253,2.0211,2.0211,2.0204,2.0185,2.0174,2.0159,2.0152,2.0155,2.0145,2.0157,2.0131,2.0158,2.0123,2.0146,2.0136,2.0135,2.0133,2.0131,2.0161,2.0116,2.0039,2.0032,2.013,2.013,2.0131,0,2.0207,2.0184,2.0157,2.0153,2.0151,2.0138,2.0136,2.0131,2.0122,2.0111,2.0105,2.009,2.0082,2.0069,2.0076,2.0095,2.004,2.0067,2.0041,2.0041,2.0029,2.0029,1.995,2.0022,2.0022,2.0022,2.0022,0,2.0143,2.0117,2.0132,2.0116,2.0087,2.01,2.0071,2.0072,2.0067,2.005,2.0067,2.005,2.0059,2.0043,2.0047,2.0018,2.0014,2.0015,2.0017,2.0014,2.0014,2.0008,2.0012,2.002,2.002,2.0021,2.0021,0,2.0077,2.0086,2.0058,2.006,2.006,2.0039,2.004,2.0024,2.0027,2.0005,2.0001,2.0006,1.9987,1.9993,1.9972,1.9975,1.9939,1.9944,1.9942,1.9943,1.9918,1.992,1.9832,1.9821,1.9899,1.9898,1.9898,0,2.0036,2.0018,2.0018,2.0009,2.0007,1.9992,1.9983,1.9995,1.9986,1.9978,1.9962,1.9946,1.9934,1.9903,1.9903,1.9888,1.9894,1.9864,1.9891,1.989,1.9894,1.9896,1.9894,1.9858,1.9857,1.9857,1.9856,0,1.9963,1.9969,1.9958,1.9948,1.9938,1.993,1.9923,1.9914,1.9926,1.9914,1.9897,1.9888,1.9868,1.9851,1.9837,1.9834,1.9846,1.9848,1.9841,1.9838,1.9838,1.9839,1.9928,1.9849,1.985,1.9851,1.9851,1.9851,1.9909,1.9894,1.9893,1.9879,1.9876,1.987,1.9856,1.9859,1.9845,1.9832,1.9839,1.9819,1.9813,1.9797,1.9792,1.9775,1.9786,1.9776,1.9774,1.9772,1.9769,1.984,1.9772,1.9773,1.9773,1.9773,1.9773,0,1.9838,1.9839,1.9827,1.9818,1.9808,1.9823,1.9817,1.9806,1.9789,1.9784,1.9772,1.9753,1.9737,1.9737,1.9722,1.9709,1.9714,1.9705,1.9706,1.9705,1.9759,1.9767,1.9701,1.9701,1.9701,1.9701,1.9701,1.9701,1.98,1.9776,1.9781,1.9755,1.9755,1.9738,1.9733,1.9727,1.9723,1.9702,1.969,1.9691,1.9687,1.9673,1.9659,1.9659,1.9653,1.9641,1.9643,1.9694,1.9701,1.9708,1.9715,1.9639,1.9639,1.9591,1.959,1.959]}]]